Weather History for Jamestown, NY

Change the Weather History Date:

Tuesday, December 6, 2011

  Actual Average Record
Temperature  
Mean Temperature 36 °F -  
Max Temperature 37 °F 38 °F 68 °F (1982)
Min Temperature 35 °F 23 °F 4 °F (1980)
Degree Days  
Heating Degree Days 29    
Moisture  
Dew Point 35 °F    
Average Humidity 93    
Maximum Humidity 100    
Minimum Humidity 87    
Precipitation  
Precipitation 0.00 in - - ()
Sea Level Pressure  
Sea Level Pressure 30.02 in    
Wind  
Wind Speed 9 mph (North)    
Max Wind Speed 14 mph    
Max Gust Speed 18 mph    
Visibility 4 miles    
Events      
Averages and records for this station are not official NWS values.
T = Trace of Precipitation, MM = Missing Value Source: NWS Daily Summary

Daily Weather History Graph

Daily Weather History Graph

Search for Another Location

Airport:

Trip Planner

Search our weather history database for the weather conditions in past years. The results will help you decide how hot, cold, wet, or windy it might be!

Date:

Astronomy

Dec. 06, 2011 Rise Set
Actual Time 7:30 AM EST 4:45 PM EST
Civil Twilight 6:59 AM EST 5:16 PM EST
Nautical Twilight 6:24 AM EST 5:51 PM EST
Astronomical Twilight 5:50 AM EST 6:25 PM EST
Moon 2:13 PM EST (12/6) 3:45 AM EST (12/6)
Length of Visible Light 10h 17m
Length of Day
9h 14m
Waxing Gibbous, 86% of the Moon is Illuminated
Dec 6
Waxing Gibbous
Dec 10
Full
Dec 17
Last Quarter
Dec 24
New
Jan 1
First Quarter

Hourly Weather History & Observations

Time (EST) Temp. Windchill Dew Point Humidity Pressure Visibility Wind Dir Wind Speed Gust Speed Precip Events Conditions
1:15 AM 37.4 °F 30.3 °F 35.6 °F 93% 30.01 in 5.0 mi North 10.4 mph - N/A   Overcast
1:35 AM 37.4 °F 30.3 °F 35.6 °F 93% 30.02 in 9.0 mi North 10.4 mph - N/A   Overcast
1:55 AM 37.4 °F 29.3 °F 35.6 °F 93% 30.01 in 3.0 mi North 12.7 mph - N/A   Overcast
2:15 AM 35.6 °F 27.1 °F 33.8 °F 93% 30.03 in 6.0 mi North 12.7 mph 18.4 mph N/A   Overcast
2:35 AM 35.6 °F 26.6 °F 33.8 °F 93% 30.02 in 5.0 mi North 13.8 mph - N/A   Overcast
2:55 AM 35.6 °F 27.1 °F 33.8 °F 93% 30.02 in 4.0 mi North 12.7 mph - N/A   Overcast
3:15 AM 35.6 °F 28.6 °F 33.8 °F 93% 30.03 in 10.0 mi North 9.2 mph - N/A   Overcast
3:35 AM 35.6 °F 28.0 °F 33.8 °F 93% 30.02 in 9.0 mi North 10.4 mph - N/A   Overcast
3:55 AM 35.6 °F 27.5 °F 33.8 °F 93% 30.02 in 10.0 mi North 11.5 mph - N/A   Overcast
4:15 AM 35.6 °F 27.5 °F 33.8 °F 93% 30.02 in 10.0 mi North 11.5 mph - N/A   Overcast
4:35 AM 35.6 °F 28.6 °F 33.8 °F 93% 30.02 in 3.0 mi North 9.2 mph - N/A   Overcast
4:55 AM 35.6 °F 29.2 °F 33.8 °F 93% 30.02 in 3.0 mi North 8.1 mph - N/A   Overcast
5:15 AM 35.6 °F 29.9 °F 33.8 °F 93% 30.02 in 5.0 mi NNE 6.9 mph - N/A   Overcast
5:35 AM 35.6 °F 29.2 °F 33.8 °F 93% 30.02 in 5.0 mi NNE 8.1 mph - N/A   Overcast
5:55 AM 35.6 °F 29.2 °F 33.8 °F 93% 30.03 in 10.0 mi NNE 8.1 mph - N/A   Overcast
6:15 AM 35.6 °F 29.9 °F 33.8 °F 93% 30.03 in 10.0 mi North 6.9 mph - N/A   Overcast
6:35 AM 35.6 °F 29.2 °F 33.8 °F 93% 30.04 in 10.0 mi North 8.1 mph - N/A   Overcast
6:55 AM 35.6 °F 29.2 °F 33.8 °F 93% 30.05 in 10.0 mi North 8.1 mph - N/A   Overcast
7:15 AM 35.6 °F 30.7 °F 33.8 °F 93% 30.04 in 10.0 mi North 5.8 mph - N/A   Overcast
7:35 AM 37.4 °F 32.1 °F 35.6 °F 93% 30.04 in 10.0 mi North 6.9 mph - N/A   Overcast
7:55 AM 37.4 °F 31.4 °F 33.8 °F 87% 30.05 in 10.0 mi North 8.1 mph - N/A   Overcast
8:15 AM 35.6 °F 31.7 °F 35.6 °F 100% 30.04 in 10.0 mi North 4.6 mph - N/A   Overcast
8:55 AM 37.4 °F 32.1 °F 33.8 °F 87% 30.05 in 10.0 mi NE 6.9 mph - N/A   Overcast
9:15 AM 37.4 °F 32.1 °F 33.8 °F 87% 30.05 in 10.0 mi North 6.9 mph - N/A   Overcast
9:35 AM 37.4 °F 31.4 °F 35.6 °F 93% 30.05 in 8.0 mi NNW 8.1 mph - N/A   Overcast
9:55 AM 37.4 °F 32.1 °F 35.6 °F 93% 30.06 in 0.5 mi NNW 6.9 mph - N/A   Overcast
10:15 AM 37.4 °F 30.8 °F 35.6 °F 93% 30.05 in 0.2 mi NNW 9.2 mph - N/A   Overcast
10:35 AM 37.4 °F 31.4 °F 35.6 °F 93% 30.05 in 0.5 mi North 8.1 mph - N/A   Overcast
10:55 AM 37.4 °F 30.3 °F 35.6 °F 93% 30.05 in 0.5 mi North 10.4 mph - N/A   Overcast
11:15 AM 37.4 °F 32.1 °F 35.6 °F 93% 30.05 in 0.5 mi North 6.9 mph - N/A   Overcast
11:35 AM 37.4 °F 32.1 °F 35.6 °F 93% 30.04 in 1.5 mi North 6.9 mph - N/A   Overcast
12:15 PM 37.4 °F 32.8 °F 35.6 °F 93% 30.03 in 3.0 mi North 5.8 mph - N/A   Overcast
12:35 PM 37.4 °F 32.8 °F 35.6 °F 93% 30.02 in 5.0 mi NNE 5.8 mph - N/A   Overcast
12:55 PM 37.4 °F 31.4 °F 35.6 °F 93% 30.01 in 7.0 mi North 8.1 mph - N/A   Overcast
1:15 PM 37.4 °F 32.8 °F 35.6 °F 93% 30.00 in 4.0 mi North 5.8 mph - N/A   Overcast
1:35 PM 37.4 °F 31.4 °F 35.6 °F 93% 30.00 in 2.5 mi NNW 8.1 mph - N/A   Overcast
1:55 PM 37.4 °F 32.1 °F 35.6 °F 93% 30.00 in 3.0 mi NNW 6.9 mph - N/A   Overcast
2:15 PM 37.4 °F 31.4 °F 35.6 °F 93% 29.99 in 5.0 mi North 8.1 mph - N/A   Overcast
2:35 PM 37.4 °F 32.1 °F 35.6 °F 93% 29.99 in 2.0 mi North 6.9 mph - N/A   Overcast
2:55 PM 37.4 °F 32.8 °F 35.6 °F 93% 29.99 in 1.8 mi North 5.8 mph - N/A   Overcast
3:15 PM 37.4 °F 31.4 °F 35.6 °F 93% 29.99 in 1.5 mi NNW 8.1 mph - N/A   Overcast
3:35 PM 37.4 °F 32.1 °F 35.6 °F 93% 29.99 in 1.5 mi North 6.9 mph - N/A   Overcast
4:15 PM 37.4 °F 31.4 °F 35.6 °F 93% 30.00 in 1.2 mi North 8.1 mph - N/A   Overcast
4:35 PM 35.6 °F 29.9 °F 33.8 °F 93% 29.99 in 1.0 mi North 6.9 mph - N/A   Overcast
4:55 PM 35.6 °F 29.9 °F 33.8 °F 93% 29.98 in 0.2 mi North 6.9 mph - N/A   Overcast
5:15 PM 35.6 °F 31.7 °F 33.8 °F 93% 29.98 in 1.0 mi North 4.6 mph - N/A   Overcast
5:35 PM 35.6 °F 31.7 °F 35.6 °F 100% 29.98 in 5.0 mi NE 4.6 mph - N/A   Overcast
5:55 PM 35.6 °F 30.7 °F 33.8 °F 93% 29.99 in 1.2 mi North 5.8 mph - N/A   Overcast
6:15 PM 35.6 °F 31.7 °F 33.8 °F 93% 29.99 in 1.2 mi North 4.6 mph - N/A   Overcast
6:35 PM 35.6 °F 29.2 °F 33.8 °F 93% 29.99 in 0.8 mi North 8.1 mph - N/A   Overcast
6:55 PM 35.6 °F 29.9 °F 33.8 °F 93% 30.00 in 0.5 mi North 6.9 mph - N/A   Overcast
7:15 PM 35.6 °F 30.7 °F 33.8 °F 93% 30.00 in 0.2 mi North 5.8 mph - N/A   Overcast
7:35 PM 35.6 °F 29.9 °F 33.8 °F 93% 30.01 in 0.2 mi North 6.9 mph - N/A   Overcast
7:55 PM 35.6 °F 29.9 °F 33.8 °F 93% 30.01 in 0.2 mi NNW 6.9 mph - N/A   Overcast
8:15 PM 35.6 °F 29.9 °F 33.8 °F 93% 30.01 in 0.2 mi NNW 6.9 mph - N/A   Overcast
8:35 PM 35.6 °F 29.9 °F 33.8 °F 93% 30.01 in 1.2 mi North 6.9 mph - N/A   Overcast
8:55 PM 35.6 °F 29.9 °F 33.8 °F 93% 30.00 in 0.5 mi North 6.9 mph - N/A   Overcast
9:15 PM 35.6 °F 30.7 °F 33.8 °F 93% 29.99 in 0.8 mi North 5.8 mph - N/A   Overcast
9:35 PM 35.6 °F 31.7 °F 33.8 °F 93% 29.99 in 1.0 mi North 4.6 mph - N/A   Overcast
9:55 PM 35.6 °F 30.7 °F 33.8 °F 93% 29.98 in 0.8 mi North 5.8 mph - N/A   Overcast
10:15 PM 35.6 °F - 33.8 °F 93% 29.97 in 0.2 mi Calm Calm - N/A   Overcast
10:35 PM 35.6 °F - 33.8 °F 93% 29.96 in 0.5 mi Calm Calm - N/A   Overcast
10:55 PM 35.6 °F 31.7 °F 33.8 °F 93% 29.94 in 0.5 mi NNE 4.6 mph - N/A   Overcast
11:15 PM 35.6 °F - 33.8 °F 93% 29.93 in 0.2 mi Calm Calm - N/A   Overcast
11:35 PM 35.6 °F 31.7 °F 33.8 °F 93% 29.92 in 0.5 mi North 4.6 mph - N/A   Overcast